[[{"header":{"parameterUnit":"m.s-1","parameterCategory":1,"la1":30.2991,"la2":30.254,"lo1":-89.0895,"lo2":-89.0444,"dy":0.0017,"dx":0.0017,"nx":28,"ny":28,"refTime":"2025-01-06T09:00:00:Z","depth":0,"parameterNumber":2,"parameterNumberName":"U-component_of_WINDS"},"data":[0,0,0,0,0,0,0,0,0,0,0,0,0,0,0,0,0,0,0,0,0,0,0,0,0,0,0,0,0,0,0,0,0,0,0,0,0,0,0,0,0,0,0,0,0,0,0,0,0,0,0,0,0,0,0,0,0,0,3.4473,3.4474,0,3.4505,3.4505,3.4505,3.4472,3.4471,3.4469,3.4468,3.4499,3.4501,3.4503,0,0,0,0,0,0,0,0,0,0,0,0,0,3.4386,3.4388,3.4473,3.4474,3.4474,3.4505,3.4505,3.4505,3.4472,3.4471,3.4469,3.4468,3.4499,3.4501,3.4503,0,0,0,0,0,0,0,0,0,0,0,0,0,3.4421,3.4388,3.4473,3.4461,3.446,3.4504,3.4505,3.4506,3.4472,3.447,3.4469,3.4467,3.4498,3.4501,3.4504,3.4561,0,0,3.4513,3.4514,0,0,0,0,0,0,0,0,3.4419,3.4424,3.4463,3.4462,3.4461,3.4482,3.4485,3.4524,3.4473,3.4468,3.4468,3.4466,3.4495,3.4498,3.4508,3.4562,3.4564,3.4513,3.4515,3.4516,3.4517,0,0,0,0,0,0,0,3.4417,3.4423,3.4486,3.4463,3.4463,3.4455,3.4457,3.4493,3.4492,3.4468,3.4466,3.447,3.4494,3.4505,3.4509,3.4564,3.4513,3.4516,3.4518,3.4519,3.4669,3.4671,0,0,0,0,0,0,3.4416,3.4421,3.4485,3.4487,3.4435,3.4458,3.4461,3.4478,3.4491,3.4492,3.4472,3.4468,3.4501,3.4505,3.451,3.4579,3.4516,3.4519,3.4521,3.4667,3.4669,3.4672,0,0,0,0,0,0,3.4414,3.4422,3.4483,3.4453,3.4461,3.4461,3.448,3.4479,3.449,3.4494,3.4494,3.4483,3.45,3.4505,3.4549,3.4579,3.4521,3.4523,3.4664,3.4667,3.467,3.4716,0,0,0,0,0,0,3.4412,3.4421,3.4443,3.4454,3.4462,3.4522,3.4482,3.4481,3.4496,3.4492,3.4505,3.4505,3.4499,3.4545,3.4552,3.4582,3.4526,3.4661,3.4665,3.4669,3.4712,3.4721,3.4728,0,0,0,0,0,3.4408,3.4454,3.4444,3.4452,3.4489,3.4524,3.4528,3.4521,3.4498,3.452,3.4523,3.4504,3.4575,3.4549,3.4557,3.4589,3.4659,3.4664,3.4669,3.4708,3.4719,3.4728,0,0,0,0,0,0,3.4445,3.4455,3.4444,3.4494,3.4509,3.4518,3.4545,3.4532,3.4552,3.4548,3.4537,3.4541,3.4587,3.4592,3.4564,3.4646,3.4613,3.462,3.4641,3.4651,3.4659,3.4656,3.4528,0,0,0,0,0,3.4459,3.4486,3.4493,3.4537,3.4545,3.4544,3.4559,3.4552,3.4566,3.4572,3.4578,3.4592,3.4618,3.4635,3.4658,3.4713,3.4716,3.4739,3.4747,3.4754,3.476,3.4791,3.4801,3.4687,3.4687,3.4687,0,0,3.4487,3.4496,3.4514,3.4545,3.4555,3.4584,3.4549,3.4581,3.4602,3.4576,3.4618,3.4623,3.4639,3.4689,3.4711,3.4695,3.4792,3.476,3.4765,3.4767,3.4797,3.4807,3.4817,3.4691,3.469,3.469,0,0,3.4555,3.4564,3.4602,3.4614,3.463,3.463,3.4639,3.4651,3.4654,3.4696,3.4678,3.4703,3.4747,3.476,3.4772,3.4847,3.4831,3.4855,3.4897,3.4927,3.4936,3.4944,3.4971,3.4981,3.4861,3.4861,3.4861,0,3.4588,3.4631,3.4623,3.4657,3.4672,3.4651,3.469,3.4701,3.4724,3.4735,3.4717,3.4773,3.4782,3.4835,3.4854,3.4864,3.4875,3.4853,3.4935,3.4943,3.495,3.4977,3.4987,3.4864,3.4863,3.4863,3.4863,0,3.4672,3.4703,3.4732,3.4756,3.4773,3.481,3.4808,3.4827,3.4819,3.4821,3.4865,3.4875,3.4901,3.4914,3.4906,3.4967,3.4956,3.4937,3.4904,3.4964,3.4989,3.4999,3.4868,3.4867,3.4866,3.4865,0,0,3.4762,3.4783,3.4793,3.4805,3.4823,3.4846,3.4882,3.4909,3.4926,3.4943,3.4973,3.5012,3.4995,3.5009,3.5003,3.503,3.509,3.5007,3.5007,3.5023,3.5159,3.5173,3.5185,3.508,3.5082,3.5083,3.5158,0,3.483,3.4893,3.4888,3.4947,3.4975,3.4957,3.4989,3.5004,3.5007,3.5032,3.5035,3.5063,3.5038,3.5047,3.5073,3.5077,3.5117,3.5072,3.5109,3.511,3.5105,3.5198,3.5212,3.5282,3.5167,3.5169,3.517,0,3.4918,3.4939,3.5002,3.5017,3.5029,3.5057,3.5082,3.5106,3.5123,3.5124,3.5141,3.5131,3.5168,3.5135,3.5186,3.5156,3.5171,3.5175,3.5178,3.5181,3.5143,3.5203,3.5304,3.5314,3.5185,3.5184,3.5183,0,3.4977,3.5022,3.5066,3.5076,3.5095,3.5116,3.5124,3.514,3.5157,3.5178,3.5189,3.5215,3.5229,3.525,3.5247,3.5223,3.5301,3.5267,3.5302,3.5303,3.5319,3.5318,3.5423,3.5329,3.5329,3.5328,3.5328,0,3.5054,3.5093,3.5093,3.512,3.5164,3.5158,3.5202,3.5208,3.5222,3.5251,3.5237,3.5263,3.5259,3.5286,3.5284,3.5328,3.5334,3.5336,3.5335,3.5337,3.5337,3.5347,3.5342,3.5331,3.5331,3.533,3.5329,0,3.5128,3.5129,3.5176,3.5191,3.5195,3.5227,3.524,3.5266,3.5269,3.5305,3.5313,3.5317,3.5349,3.5349,3.5384,3.5383,3.5437,3.5431,3.5432,3.543,3.5466,3.5463,3.5582,3.5597,3.5492,3.5493,3.5494,0,3.5177,3.5206,3.5225,3.5243,3.5254,3.5283,3.5301,3.5297,3.5316,3.5339,3.5363,3.5393,3.5417,3.5468,3.5475,3.5503,3.5497,3.5537,3.5501,3.5503,3.5498,3.5496,3.55,3.5543,3.5544,3.5545,3.5546,0,3.5263,3.5263,3.5289,3.5317,3.5338,3.5359,3.5378,3.5394,3.5393,3.5415,3.5448,3.5467,3.5504,3.5535,3.5562,3.5571,3.5559,3.5558,3.5568,3.557,3.5569,3.5571,3.5451,3.5555,3.5554,3.5553,3.5553,3.5552,3.5326,3.5353,3.5371,3.5401,3.5415,3.5434,3.546,3.5467,3.5494,3.5524,3.5521,3.5557,3.5575,3.5611,3.5623,3.5652,3.5638,3.5652,3.5655,3.5659,3.5663,3.5565,3.5656,3.5656,3.5656,3.5656,3.5656,0,3.5413,3.5424,3.5452,3.548,3.5504,3.5492,3.5513,3.5534,3.5566,3.5584,3.5609,3.5647,3.5678,3.5688,3.5717,3.5738,3.5734,3.5746,3.5745,3.5747,3.5673,3.5662,3.575,3.575,3.575,3.575,3.575,3.575,3.5461,3.5505,3.5508,3.556,3.557,3.5607,3.562,3.5638,3.5653,3.5696,3.5721,3.5728,3.5743,3.5774,3.5802,3.5804,3.5816,3.5831,3.5831,3.5762,3.5752,3.5743,3.5733,3.5833,3.5834,3.5902,3.5903,3.5903]},{"header":{"parameterUnit":"m.s-1","parameterCategory":1,"la1":30.2991,"la2":30.254,"lo1":-89.0895,"lo2":-89.0444,"dy":0.0017,"dx":0.0017,"nx":28,"ny":28,"refTime":"2025-01-06T09:00:00:Z","depth":0,"parameterNumber":3,"parameterNumberName":"V-component_of_WINDS"},"data":[0,0,0,0,0,0,0,0,0,0,0,0,0,0,0,0,0,0,0,0,0,0,0,0,0,0,0,0,0,0,0,0,0,0,0,0,0,0,0,0,0,0,0,0,0,0,0,0,0,0,0,0,0,0,0,0,0,0,-8.0395,-8.0397,0,-8.056,-8.0562,-8.0564,-8.0549,-8.0547,-8.0544,-8.0542,-8.0706,-8.0712,-8.0719,0,0,0,0,0,0,0,0,0,0,0,0,0,-8.0061,-8.0068,-8.0395,-8.0397,-8.0399,-8.056,-8.0562,-8.0565,-8.055,-8.0546,-8.0543,-8.054,-8.0704,-8.0712,-8.072,0,0,0,0,0,0,0,0,0,0,0,0,0,-8.0214,-8.007,-8.0394,-8.0411,-8.0414,-8.056,-8.0562,-8.0565,-8.055,-8.0546,-8.0543,-8.0539,-8.0701,-8.0711,-8.0721,-8.0859,0,0,-8.0752,-8.0756,0,0,0,0,0,0,0,0,-8.0206,-8.0227,-8.0406,-8.041,-8.0414,-8.053,-8.0505,-8.0664,-8.0551,-8.0498,-8.0542,-8.0537,-8.065,-8.0664,-8.0703,-8.0867,-8.0874,-8.0753,-8.0759,-8.0763,-8.0766,0,0,0,0,0,0,0,-8.0195,-8.0219,-8.046,-8.0409,-8.0413,-8.0409,-8.0426,-8.0535,-8.0593,-8.0503,-8.0502,-8.0522,-8.0651,-8.0694,-8.0707,-8.0876,-8.0752,-8.0761,-8.0767,-8.0771,-8.1163,-8.1167,0,0,0,0,0,0,-8.0181,-8.0211,-8.0455,-8.0465,-8.0298,-8.0418,-8.0438,-8.0497,-8.0592,-8.0603,-8.0525,-8.0521,-8.0678,-8.0695,-8.0713,-8.0882,-8.0763,-8.0772,-8.0778,-8.1159,-8.1164,-8.1169,0,0,0,0,0,0,-8.0174,-8.0203,-8.0448,-8.0338,-8.0369,-8.0428,-8.0494,-8.0502,-8.0544,-8.0609,-8.0619,-8.0558,-8.0676,-8.0699,-8.0824,-8.0888,-8.0777,-8.0786,-8.1153,-8.116,-8.1166,-8.1221,0,0,0,0,0,0,-8.0165,-8.0201,-8.0255,-8.0339,-8.0375,-8.0557,-8.0498,-8.0508,-8.0562,-8.0558,-8.0643,-8.0653,-8.0675,-8.0809,-8.0834,-8.09,-8.0794,-8.1148,-8.1156,-8.1164,-8.1214,-8.1229,-8.1242,0,0,0,0,0,-8.0153,-8.0262,-8.0257,-8.0287,-8.0443,-8.0561,-8.0581,-8.0606,-8.0568,-8.0622,-8.0664,-8.065,-8.0877,-8.0822,-8.085,-8.092,-8.1144,-8.1154,-8.1164,-8.1208,-8.1226,-8.1241,0,0,0,0,0,0,-8.0181,-8.0273,-8.0269,-8.0409,-8.0478,-8.0558,-8.0627,-8.0624,-8.0703,-8.0696,-8.0721,-8.074,-8.0867,-8.0905,-8.0842,-8.1059,-8.1005,-8.1021,-8.1029,-8.1047,-8.1061,-8.1049,-8.0802,0,0,0,0,0,-8.0204,-8.0293,-8.0368,-8.0484,-8.0519,-8.0568,-8.062,-8.0633,-8.0704,-8.0733,-8.0783,-8.0852,-8.0939,-8.0995,-8.1078,-8.122,-8.1238,-8.1282,-8.1296,-8.1307,-8.132,-8.1399,-8.142,-8.1201,-8.1201,-8.12,0,0,-8.0251,-8.0313,-8.0367,-8.0492,-8.0546,-8.0637,-8.0592,-8.0689,-8.0757,-8.0747,-8.0869,-8.0909,-8.0986,-8.1121,-8.1183,-8.1157,-8.1385,-8.1319,-8.1327,-8.1335,-8.1411,-8.1432,-8.145,-8.1207,-8.1206,-8.1205,0,0,-8.0384,-8.044,-8.0544,-8.06,-8.0684,-8.0716,-8.0741,-8.0823,-8.085,-8.0974,-8.0968,-8.1048,-8.1197,-8.1253,-8.1301,-8.1458,-8.1449,-8.1484,-8.1556,-8.1633,-8.165,-8.1666,-8.1722,-8.1742,-8.1497,-8.1497,-8.1497,0,-8.0432,-8.057,-8.0597,-8.0697,-8.0752,-8.0749,-8.0854,-8.0907,-8.1013,-8.1051,-8.1022,-8.121,-8.1262,-8.141,-8.1449,-8.1487,-8.1517,-8.1474,-8.1646,-8.1662,-8.1676,-8.1731,-8.1752,-8.1501,-8.1501,-8.15,-8.15,0,-8.0625,-8.0721,-8.0795,-8.0901,-8.0964,-8.1066,-8.1107,-8.1168,-8.1176,-8.1211,-8.1337,-8.14,-8.1497,-8.1533,-8.154,-8.1683,-8.1665,-8.164,-8.1586,-8.1701,-8.1752,-8.1773,-8.1507,-8.1505,-8.1504,-8.1503,0,0,-8.0779,-8.09,-8.0927,-8.0976,-8.107,-8.1144,-8.1245,-8.1342,-8.1395,-8.1468,-8.1554,-8.1681,-8.166,-8.1715,-8.1729,-8.1797,-8.1918,-8.1764,-8.1766,-8.1791,-8.208,-8.2098,-8.2121,-8.1913,-8.1917,-8.192,-8.2073,0,-8.0922,-8.1105,-8.1133,-8.1293,-8.1382,-8.1382,-8.1471,-8.1537,-8.1573,-8.1653,-8.1691,-8.1782,-8.1747,-8.178,-8.1847,-8.1889,-8.1976,-8.1879,-8.1992,-8.1996,-8.1973,-8.2148,-8.2167,-8.2308,-8.2094,-8.2097,-8.2099,0,-8.1113,-8.1195,-8.1365,-8.1449,-8.1487,-8.1567,-8.1659,-8.1736,-8.1811,-8.1832,-8.1895,-8.1902,-8.2007,-8.1949,-8.2094,-8.2027,-8.2075,-8.2103,-8.2109,-8.212,-8.2054,-8.2164,-8.2354,-8.2375,-8.2131,-8.2129,-8.2126,0,-8.121,-8.1362,-8.1484,-8.1525,-8.1626,-8.1682,-8.1726,-8.1798,-8.1855,-8.1935,-8.1972,-8.2063,-8.2112,-8.2181,-8.2212,-8.2167,-8.2355,-8.23,-8.2375,-8.2375,-8.2414,-8.2411,-8.2615,-8.2445,-8.2445,-8.2444,-8.2444,0,-8.1366,-8.147,-8.1529,-8.1604,-8.1721,-8.1751,-8.1865,-8.1907,-8.1972,-8.2055,-8.2059,-8.2136,-8.2172,-8.2254,-8.2279,-8.2396,-8.2417,-8.2437,-8.2442,-8.2437,-8.2435,-8.2469,-8.246,-8.245,-8.2449,-8.2448,-8.2447,0,-8.1493,-8.1537,-8.167,-8.1755,-8.1779,-8.1861,-8.1934,-8.2006,-8.2042,-8.2146,-8.2172,-8.2228,-8.2325,-8.2363,-8.2481,-8.2498,-8.2633,-8.263,-8.2608,-8.261,-8.2683,-8.2676,-8.2916,-8.2949,-8.2757,-8.2759,-8.276,0,-8.1591,-8.1671,-8.1766,-8.1823,-8.187,-8.1961,-8.202,-8.2053,-8.2114,-8.2208,-8.2269,-8.2367,-8.2447,-8.2603,-8.2653,-8.2743,-8.2743,-8.2821,-8.2756,-8.2749,-8.2745,-8.274,-8.2748,-8.2832,-8.2834,-8.2836,-8.2837,0,-8.1759,-8.1778,-8.1864,-8.1959,-8.203,-8.2105,-8.2178,-8.2224,-8.2268,-8.2337,-8.2438,-8.25,-8.2623,-8.272,-8.2814,-8.2857,-8.2855,-8.2857,-8.288,-8.2875,-8.2859,-8.2869,-8.2641,-8.2851,-8.285,-8.2849,-8.2848,-8.2847,-8.1875,-8.1947,-8.2026,-8.2122,-8.2182,-8.2251,-8.2324,-8.237,-8.2455,-8.2559,-8.2573,-8.2682,-8.2756,-8.2883,-8.2931,-8.3015,-8.2994,-8.3027,-8.3035,-8.3042,-8.3048,-8.2846,-8.3032,-8.3032,-8.3031,-8.3031,-8.3031,0,-8.2044,-8.2096,-8.2184,-8.2288,-8.2364,-8.2358,-8.2439,-8.2502,-8.2598,-8.2669,-8.2749,-8.2866,-8.296,-8.3019,-8.3114,-8.317,-8.3171,-8.3194,-8.319,-8.32,-8.3061,-8.3032,-8.3191,-8.3191,-8.3191,-8.3191,-8.3191,-8.3191,-8.2142,-8.2264,-8.2292,-8.2444,-8.2494,-8.2602,-8.2649,-8.2713,-8.277,-8.2901,-8.298,-8.3019,-8.3085,-8.3185,-8.3272,-8.3286,-8.3321,-8.3345,-8.3358,-8.3227,-8.321,-8.3194,-8.3168,-8.3353,-8.3353,-8.3491,-8.3492,-8.3493]}]]